^^
Grace C. Lehan Memorial Weather Station Historical Data
 
Daily Summary for December 06, 2019 Units:  English    Metric   Both
Daily Weekly Monthly Yearly Custom
  Current: High: Low: Average:
Temperature: 26.8 °F 32.6 °F 26.8 °F 29.8 °F
Dew Point: 21.17 °F 23.56 °F 21.17 °F 22.2 °F
Humidity: 79% 79% 67% 73%
Wind Speed: 0mph 4mph 0mph 0.2mph
Wind Gust: 0mph 14mph - -
WindCalm - - WNW
Pressure: 30.08 in 30.08 in 30.02 in -
Precipitation: 0 in      
Historical Graphs
 
 
Tabular Data for December 06, 2019
Time Temperature Dew Point Pressure Wind Wind Speed Wind Gust Humidity Rainfall Rate (Hourly) solar
00:00 32.6 °F 22.87 °F 30.02 in Calm   14 mph 67% 0 in 0.00 W/m2
00:05 32.6 °F 22.87 °F 30.02 in WNW 4 mph 10 mph 67% 0 in 0.00 W/m2
00:10 32.5 °F 22.78 °F 30.03 in Calm   10 mph 67% 0 in 0.00 W/m2
00:15 32.4 °F 22.68 °F 30.02 in Calm   10 mph 67% 0 in 0.00 W/m2
00:20 32.3 °F 22.94 °F 30.02 in Calm   10 mph 68% 0 in 0.00 W/m2
00:25 32.2 °F 22.84 °F 30.03 in WNW 2 mph 10 mph 68% 0 in 0.00 W/m2
00:30 32.1 °F 22.75 °F 30.03 in Calm   13 mph 68% 0 in 0.00 W/m2
00:35 32.1 °F 22.75 °F 30.03 in WNW 2 mph 5 mph 68% 0 in 0.00 W/m2
00:40 32 °F 22.65 °F 30.03 in Calm   7 mph 68% 0 in 0.00 W/m2
00:45 31.9 °F 22.55 °F 30.03 in WNW 2 mph 7 mph 68% 0 in 0.00 W/m2
00:50 31.8 °F 22.46 °F 30.03 in NNW 3 mph 11 mph 68% 0 in 0.00 W/m2
00:55 31.7 °F 22.36 °F 30.03 in Calm   11 mph 68% 0 in 0.00 W/m2
01:00 31.7 °F 22.36 °F 30.03 in Calm   11 mph 68% 0 in 0.00 W/m2
01:05 31.6 °F 22.27 °F 30.04 in Calm   5 mph 68% 0 in 0.00 W/m2
01:10 31.5 °F 22.52 °F 30.04 in Calm   6 mph 69% 0 in 0.00 W/m2
01:15 31.5 °F 22.17 °F 30.04 in Calm   6 mph 68% 0 in 0.00 W/m2
01:20 31.5 °F 22.52 °F 30.05 in Calm   6 mph 69% 0 in 0.00 W/m2
01:25 31.4 °F 22.42 °F 30.05 in Calm   6 mph 69% 0 in 0.00 W/m2
01:30 31.3 °F 22.33 °F 30.05 in Calm   6 mph 69% 0 in 0.00 W/m2
01:35 31.2 °F 22.23 °F 30.05 in Calm     69% 0 in 0.00 W/m2
01:40 31 °F 22.38 °F 30.06 in Calm     70% 0 in 0.00 W/m2
01:45 30.9 °F 22.28 °F 30.05 in Calm     70% 0 in 0.00 W/m2
01:50 30.8 °F 22.52 °F 30.05 in Calm     71% 0 in 0.00 W/m2
01:55 30.6 °F 22.33 °F 30.06 in Calm     71% 0 in 0.00 W/m2
02:00 30.5 °F 22.23 °F 30.07 in Calm     71% 0 in 0.00 W/m2
02:05 30.3 °F 22.04 °F 30.07 in Calm     71% 0 in 0.00 W/m2
02:10 30.2 °F 23.56 °F 30.06 in Calm     76% 0 in 0.00 W/m2
02:15 30.1 °F 22.51 °F 30.06 in Calm     73% 0 in 0.00 W/m2
02:20 30.1 °F 22.51 °F 30.07 in Calm     73% 0 in 0.00 W/m2
02:25 30.1 °F 22.51 °F 30.07 in Calm     73% 0 in 0.00 W/m2
02:30 30 °F 22.41 °F 30.07 in Calm     73% 0 in 0.00 W/m2
02:35 30.1 °F 22.51 °F 30.07 in Calm     73% 0 in 0.00 W/m2
02:40 30 °F 22.41 °F 30.07 in Calm     73% 0 in 0.00 W/m2
02:45 30 °F 22.41 °F 30.07 in Calm     73% 0 in 0.00 W/m2
02:50 29.8 °F 21.89 °F 30.07 in Calm     72% 0 in 0.00 W/m2
02:55 29.6 °F 22.02 °F 30.07 in Calm     73% 0 in 0.00 W/m2
03:00 29.4 °F 22.15 °F 30.07 in Calm     74% 0 in 0.00 W/m2
03:05 29.3 °F 22.06 °F 30.07 in Calm     74% 0 in 0.00 W/m2
03:10 29.2 °F 21.96 °F 30.07 in Calm     74% 0 in 0.00 W/m2
03:15 29 °F 22.08 °F 30.07 in Calm     75% 0 in 0.00 W/m2
03:20 29 °F 22.08 °F 30.07 in Calm     75% 0 in 0.00 W/m2
03:25 28.9 °F 21.99 °F 30.07 in Calm     75% 0 in 0.00 W/m2
03:30 28.8 °F 21.89 °F 30.07 in Calm     75% 0 in 0.00 W/m2
03:35 28.7 °F 21.79 °F 30.07 in Calm     75% 0 in 0.00 W/m2
03:40 28.5 °F 21.6 °F 30.07 in Calm     75% 0 in 0.00 W/m2
03:45 28.4 °F 21.81 °F 30.07 in Calm     76% 0 in 0.00 W/m2
03:50 28.2 °F 21.62 °F 30.07 in Calm     76% 0 in 0.00 W/m2
03:55 28.2 °F 21.93 °F 30.07 in Calm     77% 0 in 0.00 W/m2
04:00 28.3 °F 22.03 °F 30.07 in Calm     77% 0 in 0.00 W/m2
04:05 28.4 °F 21.81 °F 30.07 in Calm     76% 0 in 0.00 W/m2
04:10 28.5 °F 21.91 °F 30.08 in Calm     76% 0 in 0.00 W/m2
04:15 28.5 °F 21.91 °F 30.08 in Calm     76% 0 in 0.00 W/m2
04:20 28.5 °F 21.91 °F 30.08 in Calm     76% 0 in 0.00 W/m2
04:25 28.5 °F 22.22 °F 30.08 in Calm     77% 0 in 0.00 W/m2
04:30 28.4 °F 21.81 °F 30.08 in Calm     76% 0 in 0.00 W/m2
04:35 28.5 °F 21.91 °F 30.08 in Calm     76% 0 in 0.00 W/m2
04:40 28.5 °F 22.22 °F 30.08 in Calm     77% 0 in 0.00 W/m2
04:45 28.4 °F 22.12 °F 30.08 in Calm     77% 0 in 0.00 W/m2
04:50 28.4 °F 22.12 °F 30.08 in Calm     77% 0 in 0.00 W/m2
04:55 28.4 °F 22.12 °F 30.08 in Calm     77% 0 in 0.00 W/m2
05:00 28.4 °F 22.12 °F 30.08 in Calm     77% 0 in 0.00 W/m2
05:05 28.4 °F 22.12 °F 30.07 in Calm     77% 0 in 0.00 W/m2
05:10 28.3 °F 21.72 °F 30.07 in Calm     76% 0 in 0.00 W/m2
05:15 28.1 °F 21.52 °F 30.07 in Calm     76% 0 in 0.00 W/m2
05:20 27.8 °F 21.54 °F 30.07 in Calm     77% 0 in 0.00 W/m2
05:25 27.6 °F 21.35 °F 30.08 in Calm     77% 0 in 0.00 W/m2
05:30 27.2 °F 21.26 °F 30.07 in Calm     78% 0 in 0.00 W/m2
05:35 26.9 °F 21.27 °F 30.07 in Calm     79% 0 in 0.00 W/m2
05:40 26.8 °F 21.17 °F 30.08 in Calm     79% 0 in 0.00 W/m2
Grace C. Lehan Memorial Weather Station
Compliments of Weather Underground - 2 mb